Home > Weather > Salzgitter > Past weeks

Flag for Germany Past Weather in Salzgitter, Lower Saxony, Germany — Yesterday and Last 2 Weeks

Now
66 °F

Passing clouds.


Feels Like: 66 °F
Forecast: 59 / 74 °F
Wind: 1 mph from West

Location: Celle Airport

Current Time: Jul 25, 2016 at 2:21:36 AM

Latest Report: Jul 25, 2016 at 1:20 AM


Visibility: N/A

Pressure: 30.07 "Hg

Humidity: 88%

Dew Point: 63 °F

Location of SalzgitterLocation

Past Weather in Salzgitter — Graph

°F

Salzgitter Temperature Yesterday

Maximum temperature yesterday: 84 °F (at 3:20 PM)
Minimum temperature yesterday: 63 °F (at 6:20 AM)
Average temperature yesterday: 74 °F

High & Low Weather Summary for the Past Weeks

 TemperatureHumidityPressure
High88 °F (Jul 20, 4:20 PM)100% (Jul 13, 11:20 PM)30.24 "Hg (Jul 13, 11:20 PM)
Low46 °F (Jul 16, 5:20 AM)31% (Jul 20, 3:20 PM)29.71 "Hg (Jul 10, 11:20 PM)
Average68 °F69%30.02 "Hg
* Reported Jul 10 12:20 AM — Jul 25 12:20 AM, Salzgitter, Weather by CustomWeather, © 2016

Note: Actual official high and low records may vary slightly from our data, if they occured in-between our weather recording intervals... More about our weather records

Advertising

Salzgitter Weather History for the Previous 24 Hours

Scroll right to see more
 ConditionsComfort  
Time TempWeatherWind HumidityBarometerVisibility
12:20 AM
Mon, Jul 25
68 °FPassing clouds.1 mph83%30.07 "HgN/A
11:20 PM
Sun, Jul 24
72 °FPassing clouds.3 mph73%30.07 "HgN/A
10:20 PM75 °FScattered clouds.2 mph65%30.07 "HgN/A
9:20 PM77 °FScattered clouds.5 mph61%30.04 "HgN/A
8:20 PM79 °FScattered clouds.5 mph54%30.04 "HgN/A
7:20 PM82 °FPartly sunny.5 mph37%30.04 "HgN/A
6:20 PM84 °FPartly sunny.5 mph35%30.04 "HgN/A
5:20 PM84 °FPartly sunny.5 mph37%30.04 "HgN/A
4:20 PM84 °FPartly sunny.6 mph37%30.04 "HgN/A
3:20 PM84 °FScattered clouds.5 mph40%30.07 "HgN/A
2:20 PM82 °FPartly sunny.9 mph40%30.07 "HgN/A
1:20 PM81 °FPartly sunny.8 mph45%30.07 "HgN/A
12:20 PM81 °FScattered clouds.6 mph48%30.07 "HgN/A
11:20 AM77 °FScattered clouds.5 mph61%30.09 "HgN/A
10:20 AM73 °FScattered clouds.3 mph69%30.09 "HgN/A
9:20 AM72 °FScattered clouds.2 mph73%30.09 "HgN/A
8:20 AM70 °FPartly sunny.2 mph73%30.09 "HgN/A
7:20 AM64 °FPartly sunny.2 mph88%30.09 "HgN/A
6:20 AM63 °FPassing clouds.1 mph94%30.09 "HgN/A
5:20 AM64 °FPassing clouds.1 mph88%30.09 "HgN/A
4:20 AM64 °FPassing clouds.1 mph88%30.09 "HgN/A
3:20 AM64 °FPassing clouds.1 mph88%30.09 "HgN/A
2:20 AM64 °FPassing clouds.3 mph88%30.09 "HgN/A
Weather by CustomWeather, © 2016

See weather overviewHow to use our weather pages